Simultaneous Nadir Overpasses (SNOs) Predictions

Prediction of SNOs between METOP-B and TERRA Satellite Orbit:

Table of predicted SNOs for the next 14.0 days since TLE Epoch: 10/26/2014
Index Date (METOP-B) Time (METOP-B) Lat,Lon (METOP-B) SZA (METOP-B ) Date (TERRA) Time (TERRA) Lat,Lon (TERRA) SZA (TERRA ) Distance(km) Time Diff (sec)
1 10/27/2014 17:16:52 81.26, -33.17 97.20 10/27/2014 17:17:43 81.26, -33.07 97.24 1.75 51
2 10/27/2014 18:07:31 -81.27, 134.71 82.72 10/27/2014 18:07:09 -81.27, 134.84 82.71 2.41 22
3 10/30/2014 12:51:18 81.26, 33.58 98.18 10/30/2014 12:51:54 81.26, 33.43 98.18 2.51 36
4 10/30/2014 13:41:58 -81.27,-158.89 81.79 10/30/2014 13:41:21 -81.26,-159.01 81.83 2.16 37
5 11/02/2014 08:25:44 81.26, 99.83 99.06 11/02/2014 08:26:03 81.27, 100.01 99.10 3.30 19
6 11
